TimeHST,TemperatureF,Dew PointF,Humidity,Sea Level PressureIn,VisibilityMPH,Wind Direction,Wind SpeedMPH,Gust SpeedMPH,PrecipitationIn,Events,Conditions,WindDirDegrees,DateUTC
12:53 AM,71.1,64.9,81,30.12,10.0,NNE,8.1,-,N/A,,Clear,20,2013-05-11 10:53:00
1:53 AM,70.0,64.9,84,30.10,10.0,NE,6.9,-,N/A,,Clear,40,2013-05-11 11:53:00
2:29 AM,71.6,64.4,78,30.07,10.0,NNE,8.1,-,N/A,,Partly Cloudy,20,2013-05-11 12:29:00
2:53 AM,70.0,64.9,84,30.09,10.0,NNE,6.9,-,N/A,,Clear,30,2013-05-11 12:53:00
3:53 AM,70.0,64.0,81,30.09,10.0,Variable,6.9,-,N/A,,Mostly Cloudy,0,2013-05-11 13:53:00
4:53 AM,70.0,64.0,81,30.09,10.0,Variable,6.9,-,N/A,,Overcast,0,2013-05-11 14:53:00
5:53 AM,71.1,64.0,78,30.10,10.0,Variable,5.8,-,N/A,,Mostly Cloudy,0,2013-05-11 15:53:00
6:44 AM,71.6,64.4,78,30.09,10.0,Variable,6.9,-,N/A,,Partly Cloudy,0,2013-05-11 16:44:00
6:53 AM,72.0,64.0,76,30.11,10.0,NNE,8.1,-,N/A,,Clear,20,2013-05-11 16:53:00
7:53 AM,73.9,64.9,73,30.12,10.0,NNE,8.1,-,N/A,,Clear,30,2013-05-11 17:53:00
8:53 AM,75.9,64.9,69,30.12,10.0,Variable,5.8,17.3,N/A,,Clear,0,2013-05-11 18:53:00
9:53 AM,78.1,64.0,62,30.13,10.0,ENE,8.1,-,N/A,,Partly Cloudy,70,2013-05-11 19:53:00
10:53 AM,81.0,64.9,58,30.12,10.0,ENE,8.1,-,N/A,,Partly Cloudy,60,2013-05-11 20:53:00
11:53 AM,78.1,64.0,62,30.12,10.0,Variable,5.8,-,N/A,,Overcast,0,2013-05-11 21:53:00
12:53 PM,78.1,64.9,64,30.10,10.0,Variable,3.5,-,N/A,,Overcast,0,2013-05-11 22:53:00
1:53 PM,75.9,66.0,71,30.08,10.0,WSW,4.6,-,N/A,,Overcast,250,2013-05-11 23:53:00
2:53 PM,75.9,66.0,71,30.07,10.0,Variable,4.6,-,N/A,,Overcast,0,2013-05-12 00:53:00
3:53 PM,77.0,64.0,64,30.06,10.0,Variable,3.5,-,N/A,,Overcast,0,2013-05-12 01:53:00
4:53 PM,77.0,66.0,69,30.06,10.0,North,8.1,18.4,N/A,,Overcast,10,2013-05-12 02:53:00
5:53 PM,73.9,64.9,73,30.07,10.0,NNE,10.4,19.6,N/A,,Clear,20,2013-05-12 03:53:00
6:53 PM,72.0,64.9,78,30.09,10.0,ENE,6.9,-,N/A,,Scattered Clouds,60,2013-05-12 04:53:00
7:53 PM,71.1,64.0,78,30.12,10.0,Variable,5.8,-,N/A,,Clear,0,2013-05-12 05:53:00
8:53 PM,70.0,64.0,81,30.13,10.0,NNE,8.1,-,N/A,,Clear,30,2013-05-12 06:53:00
9:53 PM,70.0,64.0,81,30.14,10.0,Variable,4.6,-,N/A,,Clear,0,2013-05-12 07:53:00
10:53 PM,70.0,63.0,78,30.14,10.0,NNE,8.1,-,N/A,,Clear,30,2013-05-12 08:53:00
11:53 PM,70.0,63.0,78,30.13,10.0,Variable,6.9,-,N/A,,Clear,0,2013-05-12 09:53:00